OBJECT C, 67250

Orbit data source: Space-Track

You're viewing an Uncataloged Satellite

Recently launched and/or uncataloged satellites may have evolving metadata. Metadata may include but not limited to: Owner, Maufacturer, Bus, Motor, and Mission.

OBJECT C, 67250 is a satellite in SSO that was launched on Sun, 28 Dec 2025 UTC via an FALCON 9 launch vehicle from the Vostochny Cosmodrome (VOSTO). Unknown objects in Earth's orbit typically refer to objects detected orbiting the Earth but have not yet been identified or cataloged. These objects could be anything from previously untracked satellites, spent rocket stages, debris from satellite collisions, or even natural meteoroids temporarily captured by Earth's gravity.

Loading next visibility...
Identifier
67250, 2025-313C
Orbit
SSO
Country
Flag of TBDTBD
Related business
Manufacturer
FERG
Mission
Operational Commercial Communications
Bus & Motor
FGN-100, Unknown motor
Mass
102 kg wet, 102 kg dry
Launch date (UTC)
2025-12-28 (6 months ago)
Launch vehicle
FALCON 9
Launch site
Vostochny Cosmodrome (VOSTO)
Object type
Unknown
Shape & HBR
Box, 0.3 m
Radar Cross Section
0.255 m², Medium (>0.1 m² and < 1m²)

Expand to show TLE details & history
Last TLE update: 9 hours ago

TLE from 9 hours ago
0 OBJECT C
1 67250U 25313C   26171.46176959  .00006227  00000-0  54495-3 0  9995
2 67250  97.6153 242.0489 0149105 326.4402  32.7436 14.88843388 25842
Epoch: 2026-06-20T11:04Z
TLE epoch observation values (Epoch: 2026-06-20T11:04:56.892Z)
Latitude
-0.00007°
Longitude
167.13581°
Altitude
517.501 km
Speed
7.652 km/s
True Right ascension
16h 08m 11s
True Declination
0° 00' 00"
Sunlit
Object was in full shadow at epoch
Visualization orbit readout
Latitude
Unknown
Longitude
Unknown
Altitude
Unknown
Speed
Unknown
Apparent Right ascension
Unknown
Apparent Declination
Unknown
Sunlit
N/A
Visualization observer readout
Local Sidereal Time
07:22:55
Azimuth
Unknown
Elevation
Unknown
Doppler factor
Unknown
Orbital elements
Apogee altitude
702.59 km
Perigee altitude
494.538 km
Semi-major axis
6,976.701 km
Eccentricity
0.01491
Inclination
97.6153°
RAAN
242.0489°
Arg. of periapsis
326.4402°
True anomaly
33.68242°
Mean anomaly
32.7436°
Eccentric anomaly
33.21153°
Mean motion
3.7245 °/min
Orbital period
96.66 mins
BSTAR
0.00054495
Loading maneuver chart data...
Computing Atmospheric mass density...
Loading historical data...
Loading historical data...
Loading historical data...
Loading historical data...
Loading historical data...
Loading historical data...
Loading historical data...

Documentation

Showing up to 5 results
|